Regional Weather Roundup
Issued by NWS

Home | Current Version | Previous Version | Graphics & Text | Print | Product List | Glossary On
Versions: 1 2 3 4 5 6 7 8 9 10 11 12 13 14 15 16 17 18 19 20 21 22 23 24 25 26 27 28 29 30 31 32 33 34 35 36 37 38 39 40 41 42 43 44 45 46 47 48 49 50
000
ASUS43 KOAX 281310
RWRNE

WEATHER ROUNDUP FOR NEBRASKA
NATIONAL WEATHER SERVICE OMAHA NE
800 AM CDT TUE MAR 28 2017

NOTES: SATELLITE DATA IS BEING USED TO AUGMENT CLOUD COVER ABOVE
       12000 FEET.
       "FAIR" INDICATES FEW OR NO CLOUDS BELOW 12,000 FEET WITH NO
       SIGNIFICANT WEATHER AND/OR OBSTRUCTIONS TO VISIBILITY.

  * THESE STATIONS DO NOT REPORT WEATHER SUCH AS RAIN...SNOW OR FOG.

NEZ001>004-019>022-054>056-281400-
NEBRASKA PANHANDLE

CITY           SKY/WX    TMP DP  RH WIND       PRES   REMARKS
SCOTTSBLUFF    LGT RAIN  45  43  93 E14       29.90R FOG
ALLIANCE       RAIN      44  43  96 E8        29.92S FOG
CHADRON        RAIN      43  42  97 NE7       29.96R FOG
KIMBALL        CLOUDY    44  44 100 SE7       29.87R FOG
SIDNEY         CLOUDY    44  42  93 SE15G22   29.89R
$$

NEZ057>060-069>072-079>082-281400-
SOUTHWEST NEBRASKA

CITY           SKY/WX    TMP DP  RH WIND       PRES   REMARKS
NORTH PLATTE   LGT RAIN  44  42  93 SE8       29.98R FOG
IMPERIAL       LGT RAIN  45  43  93 SE10      29.93R
LEXINGTON      MIX PCPN  43  41  95 SE10      30.00S VSB 1/4
MCCOOK         CLOUDY    45  45 100 SE10      29.97R FOG
OGALLALA       CLOUDY    46  45  93 E9        29.94R
$$

NEZ005>010-023>029-035>040-094-281400-
NORTH CENTRAL NEBRASKA

CITY           SKY/WX    TMP DP  RH WIND       PRES   REMARKS
VALENTINE      LGT RAIN  45  41  86 CALM      30.01R
AINSWORTH      CLOUDY    43  43  99 S5        30.02R FOG
BROKEN BOW     FOG       42  40  92 SE8       30.02R VSB 1/2
O`NEILL        MOCLDY    39  39  98 S5        30.04R FOG
ORD            CLOUDY    41  39  93 S6        30.04R FOG
THEDFORD       CLOUDY    43  42  97 E6        30.02R FOG
$$

NEZ041-046>049-061>064-073>077-083>087-281400-
SOUTH CENTRAL NEBRASKA

CITY           SKY/WX    TMP DP  RH WIND       PRES   REMARKS
GRAND ISLAND   PTCLDY    34  34 100 SE3       30.05S FOG
AURORA         FOG       31  31 100 CALM      30.05S VSB<1/4
HASTINGS       CLOUDY    41  38  89 SE7       30.05S FOG
HEBRON         CLOUDY    37  36  99 CALM      30.07R FOG
HOLDREGE       FOG       42  42  97 E8        30.02S VSB 1
KEARNEY *      CLOUDY    43  37  81 E6        30.04S
YORK           FOG       30  30 100 CALM      30.06R VSB<1/4
$$

NEZ011>018-030>034-042>045-281400-
NORTHEAST NEBRASKA

CITY           SKY/WX    TMP DP  RH WIND       PRES   REMARKS
NORFOLK        FOG       33  32  96 CALM      30.07R VSB<1/4
ALBION         FOG       36  34  94 CALM      30.07R VSB<1/4
BLAIR          CLOUDY    41  39  92 CALM      30.08R
FREMONT        CLOUDY    36  36 100 CALM      30.09R FOG
TEKAMAH        CLOUDY    36  35  96 N6        30.09R FOG     WCI  31
WAYNE          MOCLDY    30  30  99 CALM      30.08R FOG
$$

NEZ050>053-065>068-078-088>093-281400-
SOUTHEAST NEBRASKA

CITY           SKY/WX    TMP DP  RH WIND       PRES   REMARKS
LINCOLN        CLOUDY    35  33  92 N6        30.08R FOG     WCI  30
OMAHA EPPLEY   CLOUDY    41  36  82 NW3       30.09R
BEATRICE       PTCLDY    38  37  98 NE3       30.06R FOG
FALLS CITY     CLOUDY    47  43  86 NE6       30.07R
NEBRASKA CITY  CLOUDY    43  40  90 NE3       30.07R
PLATTSMOUTH    CLOUDY    44  38  79 N3        30.07R
$$

NEZ044-045-051>053-067-281400-
OMAHA AREA

CITY           SKY/WX    TMP DP  RH WIND       PRES   REMARKS
OMAHA EPPLEY   CLOUDY    41  36  82 NW3       30.09R
BLAIR          CLOUDY    41  39  92 CALM      30.08R
FREMONT        CLOUDY    36  36 100 CALM      30.09R FOG
MILLARD        CLOUDY    46  41  83 CALM      30.09R
OFFUTT AFB     CLOUDY    43  38  83 NE6       30.08R
PLATTSMOUTH    CLOUDY    44  38  79 N3        30.07R
WAHOO          CLOUDY    39  38  97 CALM      30.09R FOG
$$




USA.gov is the U.S. government's official web portal to all federal, state and local government web resources and services.